Location: Clanezzo
(45.7500°N, 9.6000°E)
Time: 08:50:32
(UTC+00:00)

Gbstr 26 Del rocket - Pass Details

Date: 30 September 2021
Orbit: 492 x 1263 km, 51.8° (Epoch: 18 October)

Event Time Altitude Azimuth Distance (km) Brightness Sun altitude
Rises 17:18:29 0° 202° (SSW) 3,639 7.3 -3.4°
Reaches altitude 10° 17:21:08 10° 193° (SSW) 2,807 6.6 -3.9°
Maximum altitude 17:27:17 35° 130° (SE) 1,744 5.0 -5.0°
Drops below altitude 10° 17:34:14 10° 69° (ENE) 3,197 6.1 -6.2°
Enters shadow 17:36:43 - 63° (ENE) 3,972 6.6 -6.6°
